Mumbai, India

6:34 PM IST on December 12, 2017 (GMT +0530)
Chhatrapati Shivaji International

Weather History for VABB - February, 2014

Change the Weather History Date:

Friday, February 28, 2014

  Actual Average Record
Temperature  
Mean Temperature 76 °F -  
Max Temperature 83 °F 89 °F 100 °F (1997)
Min Temperature 70 °F 71 °F 64 °F (1998)
Cooling Degree Days 12    
Growing Degree Days 26 (Base 50)    
Moisture  
Dew Point 58 °F    
Average Humidity 49    
Maximum Humidity 65    
Minimum Humidity 26    
Precipitation  
Precipitation 0.00 in - - ()
Sea Level Pressure  
Sea Level Pressure 29.90 in    
Wind  
Wind Speed 8 mph ()    
Max Wind Speed 15 mph    
Max Gust Speed 23 mph    
Visibility 2.8 miles    
Events      
Averages and records for this station are not official NWS values.
T = Trace of Precipitation, MM = Missing Value Source: Averaged Metar Reports

Daily Weather History Graph

Daily Weather History Graph

Search for Another Location

Airport or City:

Trip Planner

Search our weather history database for the weather conditions in past years. The results will help you decide how hot, cold, wet, or windy it might be!

Date:

Astronomy

Feb. 28, 2014 Rise Set
Actual Time 6:58 AM IST 6:43 PM IST
Civil Twilight 6:36 AM IST 7:05 PM IST
Nautical Twilight 6:11 AM IST 7:31 PM IST
Astronomical Twilight 5:45 AM IST 7:56 PM IST
Moon 5:49 AM IST (2/28) 5:50 PM IST (2/28)
Length of Visible Light 12h 28m
Length of Day
11h 44m
Waning Crescent, 2% of the Moon is Illuminated
Feb 28
Waning Crescent
Mar 1
New
Mar 8
First Quarter
Mar 16
Full
Mar 24
Last Quarter

Hourly Weather History & Observations

Time (IST) Temp. Heat Index Dew Point Humidity Pressure Visibility Wind Dir Wind Speed Gust Speed Precip Events Conditions
12:10 AM 77.0 °F - 60.8 °F 57% 29.92 in 3.7 mi WSW 9.2 mph - N/A   Unknown
12:40 AM 77.0 °F - 64.4 °F 65% 29.89 in 3.7 mi West 10.4 mph - N/A   Unknown
1:10 AM 77.0 °F - 64.4 °F 65% 29.89 in 4.3 mi West 9.2 mph - N/A   Unknown
1:40 AM 77.0 °F - 62.6 °F 61% 29.89 in 4.3 mi West 9.2 mph - N/A   Unknown
2:10 AM 77.0 °F - 60.8 °F 57% 29.89 in 3.7 mi West 10.4 mph - N/A   Unknown
2:30 AM 76 °F - 61 °F 50% 29.89 in 1 mi WNW 5.8 mph - -   Smoke
2:40 AM 77.0 °F - 60.8 °F 57% 29.89 in 3.7 mi West 8.1 mph - N/A   Unknown
3:10 AM 77.0 °F - 62.6 °F 61% 29.89 in 3.7 mi West 8.1 mph - N/A   Unknown
3:40 AM 75.2 °F - 60.8 °F 61% 29.86 in 3.7 mi West 9.2 mph - N/A   Unknown
4:40 AM 77.0 °F - 59.0 °F 54% 29.86 in 3.1 mi WNW 9.2 mph - N/A   Smoke
5:10 AM 77.0 °F - 59.0 °F 54% 29.89 in 3.1 mi West 9.2 mph - N/A   Smoke
5:30 AM 74 °F - 58 °F 48% 29.88 in 1 mi Calm Calm - -   Smoke
5:40 AM 75.2 °F - 57.2 °F 53% 29.89 in 3.1 mi WNW 9.2 mph - N/A   Smoke
6:10 AM 75.2 °F - 57.2 °F 53% 29.89 in 3.1 mi West 8.1 mph - N/A   Smoke
6:40 AM 77.0 °F - 55.4 °F 47% 29.89 in 3.1 mi West 5.8 mph - N/A   Smoke
7:10 AM 75.2 °F - 57.2 °F 53% 29.92 in 3.1 mi West 5.8 mph - N/A   Smoke
7:40 AM 77.0 °F - 57.2 °F 50% 29.92 in 3.1 mi West 9.2 mph - N/A   Smoke
8:10 AM 77.0 °F - 57.2 °F 50% 29.95 in 2.5 mi West 10.4 mph - N/A   Smoke
8:30 AM 76 °F - 56 °F 40% 29.95 in 1 mi Calm Calm - -   Smoke
8:40 AM 77.0 °F - 55.4 °F 47% 29.95 in 2.5 mi WNW 8.1 mph - N/A   Smoke
9:40 AM 78.8 °F - 59.0 °F 51% 29.98 in 3.1 mi WNW 8.1 mph - N/A   Smoke
10:10 AM 78.8 °F - 59.0 °F 51% 29.98 in 3.1 mi West 10.4 mph - N/A   Smoke
10:40 AM 80.6 °F 81.1 °F 59.0 °F 48% 29.98 in 3.1 mi WNW 9.2 mph - N/A   Smoke
11:10 AM 80.6 °F 81.1 °F 59.0 °F 48% 29.98 in 3.1 mi West 11.5 mph - N/A   Smoke
11:30 AM 81 °F - 60 °F 39% 29.97 in 1 mi West 5.8 mph - -   Smoke
11:40 AM 80.6 °F 81.5 °F 60.8 °F 51% 29.95 in 3.1 mi West 13.8 mph - N/A   Smoke
12:10 PM 80.6 °F 81.1 °F 59.0 °F 48% 29.95 in 3.1 mi West 9.2 mph 20.7 mph N/A   Smoke
12:40 PM 80.6 °F 81.1 °F 59.0 °F 48% 29.92 in 3.1 mi West 9.2 mph 20.7 mph N/A   Smoke
1:10 PM 80.6 °F 81.5 °F 60.8 °F 51% 29.92 in 3.1 mi West 11.5 mph 23.0 mph N/A   Smoke
1:40 PM 80.6 °F 81.5 °F 60.8 °F 51% 29.89 in 3.1 mi WNW 9.2 mph - N/A   Smoke
2:10 PM 80.6 °F 81.5 °F 60.8 °F 51% 29.89 in 3.1 mi West 8.1 mph 19.6 mph N/A   Smoke
2:30 PM 82 °F - 62 °F 40% 29.88 in 2 mi West 6.9 mph - -   Smoke
2:40 PM 80.6 °F 81.8 °F 62.6 °F 54% 29.89 in 3.1 mi West 8.1 mph 19.6 mph N/A   Smoke
3:10 PM 80.6 °F 81.5 °F 60.8 °F 51% 29.86 in 3.1 mi West 12.7 mph - N/A   Smoke
3:40 PM 80.6 °F 81.1 °F 59.0 °F 48% 29.86 in 3.7 mi West 12.7 mph - N/A   Partly Cloudy
4:10 PM 80.6 °F 80.8 °F 57.2 °F 45% 29.86 in - West 15.0 mph - N/A   Clear
4:40 PM 80.6 °F 80.5 °F 55.4 °F 42% 29.86 in 5.0 mi WNW 12.7 mph - N/A   Unknown
5:10 PM 80.6 °F 80.5 °F 55.4 °F 42% 29.86 in - WNW 12.7 mph - N/A   Clear
5:30 PM 81 °F - 52 °F 26% 29.87 in 2 mi NW 6.9 mph - -   Smoke
5:40 PM 78.8 °F - 53.6 °F 42% 29.86 in - West 11.5 mph - N/A   Clear
6:10 PM 78.8 °F - 53.6 °F 42% 29.86 in - West 8.1 mph - N/A   Clear
6:40 PM 78.8 °F - 55.4 °F 44% 29.86 in 3.7 mi NW 9.2 mph - N/A   Unknown
7:40 PM 77.0 °F - 55.4 °F 47% 29.86 in 3.1 mi NW 6.9 mph - N/A   Smoke
8:10 PM 77.0 °F - 55.4 °F 47% 29.89 in 2.5 mi WNW 9.2 mph - N/A   Smoke
8:30 PM 76 °F - 55 °F 38% 29.90 in 1 mi NW 4.6 mph - -   Smoke
8:40 PM 77.0 °F - 55.4 °F 47% 29.89 in 2.5 mi WNW 8.1 mph - N/A   Smoke
9:10 PM 77.0 °F - 53.6 °F 44% 29.89 in 2.5 mi WNW 8.1 mph - N/A   Smoke
9:40 PM 77.0 °F - 53.6 °F 44% 29.92 in 2.5 mi WNW 6.9 mph - N/A   Smoke
10:10 PM 77.0 °F - 53.6 °F 44% 29.92 in 1.6 mi NW 6.9 mph - N/A   Smoke
10:40 PM 75.2 °F - 53.6 °F 47% 29.92 in 1.7 mi NW 5.8 mph - N/A   Smoke
11:10 PM 77.0 °F - 53.6 °F 44% 29.92 in 1.7 mi NW 6.9 mph - N/A   Smoke
11:30 PM 74 °F - 54 °F 39% 29.92 in 1 mi NW 9.2 mph - -   Smoke
11:40 PM 75.2 °F - 55.4 °F 50% 29.92 in 1.7 mi NW 4.6 mph - N/A   Smoke